This is the latest recevied weather packets stored in our database for station/object GW4003. If no packets are shown the sender has not sent any weather packets the latest 10 day(s).
| Time | Temp. | Humidity | Pressure | Rain* | Wind** | Luminosity | Snow |
|---|---|---|---|---|---|---|---|
| 1788646569 | 32.78° C | 20% | 1017.5 hPa | 0 mm | - | - | - |
| 1788646265 | 33.33° C | 20% | 1017.6 hPa | 0 mm | - | - | - |
| 1788645962 | 33.33° C | 20% | 1017.6 hPa | 0 mm | - | - | - |
| 1788645658 | 32.78° C | 20% | 1017.6 hPa | 0 mm | - | - | - |
| 1788645355 | 33.33° C | 19% | 1017.6 hPa | 0 mm | - | - | - |
| 1788645051 | 33.89° C | 20% | 1017.7 hPa | 0 mm | - | - | - |
| 1788644747 | 33.33° C | 21% | 1017.8 hPa | 0 mm | - | - | - |
| 1788644444 | 33.89° C | 20% | 1017.9 hPa | 0 mm | - | - | - |
| 1788644140 | 32.78° C | 21% | 1018.1 hPa | 0 mm | - | - | - |
| 1788643836 | 32.78° C | 20% | 1018 hPa | 0 mm | - | - | - |
| 1788643533 | 32.78° C | 20% | 1018.1 hPa | 0 mm | - | - | - |
| 1788643229 | 32.78° C | 20% | 1018.2 hPa | 0 mm | - | - | - |
| 1788642953 | 32.78° C | 21% | 1018.2 hPa | 0 mm | - | - | - |
| 1788642622 | 33.33° C | 20% | 1018.2 hPa | 0 mm | - | - | - |
| 1788642318 | 33.33° C | 20% | 1018.2 hPa | 0 mm | - | - | - |
| 1788642014 | 33.33° C | 20% | 1018.1 hPa | 0 mm | - | - | - |
| 1788641712 | 33.33° C | 20% | 1018.2 hPa | 0 mm | - | - | - |
| 1788641407 | 33.33° C | 20% | 1018.2 hPa | 0 mm | - | - | - |
| 1788641103 | 33.89° C | 19% | 1018.4 hPa | 0 mm | - | - | - |
| 1788640799 | 33.89° C | 20% | 1018.4 hPa | 0 mm | - | - | - |
| 1788640496 | 33.89° C | 20% | 1018.5 hPa | 0 mm | - | - | - |
| 1788640192 | 33.33° C | 20% | 1018.5 hPa | 0 mm | - | - | - |
| 1788639889 | 33.33° C | 20% | 1018.6 hPa | 0 mm | - | - | - |
| 1788639585 | 33.33° C | 21% | 1018.6 hPa | 0 mm | - | - | - |
| 1788639281 | 32.78° C | 20% | 1018.7 hPa | 0 mm | - | - | - |
* Rain latest hour (hover to see other rain measurements)
** Current wind speed in m/s (hover to see current wind gust speed)